This demonstration page uses our WeatherBlox Daily Observations layout. Learn more.

39.29038, -76.61219

Hourly Observations for December 27, 2017

Temp ( °F °C ) Dew Point ( °F °C ) Humidity (%) Winds ( mph kmh ) Pressure ( in mb ) Visibility ( mi km ) Precip ( " mm )
12:54 am 00:54 undefined 33 0.6 11 -11.7 40 40 undefined N/A 30.45 1031 N/A 0 0
1:54 am 01:54 undefined 33 0.6 12 -11.1 42 42 undefined N/A 30.45 1031 N/A 0 0
2:54 am 02:54 undefined 32 0 13 -10.6 45 45 undefined N/A 30.45 1031 N/A 0 0
3:54 am 03:54 undefined 30 -1.1 13 -10.6 49 49 undefined N/A 30.45 1031 N/A 0 0
4:54 am 04:54 undefined 30 -1.1 14 -10 51 51 undefined N/A 30.48 1032 N/A 0 0
5:54 am 05:54 undefined 29 -1.7 14 -10 54 54 undefined N/A 30.48 1032 N/A 0 0
6:54 am 06:54 undefined 27 -2.8 11 -11.7 51 51 undefined N/A 30.48 1032 N/A 0 0
7:54 am 07:54 undefined 26 -3.3 11 -11.7 53 53 undefined N/A 30.59 1036 N/A 0 0
8:54 am 08:54 undefined 26 -3.3 12 -11.1 55 55 undefined N/A 30.48 1032 N/A 0 0
9:54 am 09:54 undefined 26 -3.3 13 -10.6 57 57 undefined N/A 30.5 1033 N/A 0 0
10:54 am 10:54 undefined 26 -3.3 13 -10.6 57 57 undefined N/A 30.53 1034 N/A 0 0
11:54 am 11:54 undefined 26 -3.3 12 -11.1 55 55 undefined N/A 30.5 1033 N/A 0 0
12:54 pm 12:54 undefined 28 -2.2 12 -11.1 51 51 undefined N/A 30.48 1032 N/A 0 0
1:54 pm 13:54 undefined 29 -1.7 11 -11.7 47 47 undefined N/A 30.45 1031 N/A 0 0
2:54 pm 14:54 undefined 29 -1.7 7 -13.9 39 39 undefined N/A 30.45 1031 N/A 0 0
3:54 pm 15:54 undefined 29 -1.7 3 -16.1 33 33 undefined N/A 30.48 1032 N/A 0 0
4:54 pm 16:54 undefined 28 -2.2 1 -17.2 31 31 undefined N/A 30.48 1032 N/A 0 0
5:54 pm 17:54 undefined 27 -2.8 -1 -18.3 29 29 undefined N/A 30.5 1033 N/A 0 0
6:54 pm 18:54 undefined 25 -3.9 -1 -18.3 32 32 undefined N/A 30.53 1034 N/A 0 0
7:54 pm 19:54 undefined 24 -4.4 -2 -18.9 32 32 undefined N/A 30.56 1035 N/A 0 0
8:54 pm 20:54 undefined 22 -5.6 0 -17.8 38 38 undefined N/A 30.56 1035 N/A 0 0
9:54 pm 21:54 undefined 21 -6.1 -1 -18.3 38 38 undefined N/A 30.56 1035 N/A 0 0
10:54 pm 22:54 undefined 20 -6.7 -1 -18.3 40 40 undefined N/A 30.59 1036 N/A 0 0
11:54 pm 23:54 undefined 20 -6.7 -1 -18.3 40 40 undefined N/A 30.59 1036 N/A 0 0

Powered by AerisWeather